Birchwood Airport
PABV : rendu visible

Aérodrome :











RETROUVEZ-NOUS SUR...

 
LOGIN :

S'inscrire | Disclaimer

   EN    FR    IT 

 









Légende :    VFR   VFR Marginal   IFR   IFR Intensif   IFR Très Intensif
Visi : 
Plafond : 
>= 8 km
>= 3000ft
5 à 8 km
1000 à 3000 ft
1500m à 5 km
500 à 1000 ft
800 à 1500m
200 à 500 ft
< 800m
< 200 ft
Symboles :   Orages  Brouillard  Fortes neiges  Fortes précipitations  Vent > 20 kt






- Altitude de l'aérodrome : 83 ft
- Code IATA : BCV


PABV - Birchwood

DERNIER METAR :
  • 271256Z AUTO 10003KT 10SM CLR 06/04 A2933 RMK AO2 SLP938 T00560039

METARs EXPIRÉS :
  • 271156Z AUTO 16004KT 10SM FEW080 06/05 A2938 RMK AO2 SLP953 T00610050 10089 20050 58022
  • 271056Z AUTO 00000KT 10SM CLR 06/05 A2940 RMK AO2 SLP961 T00560050

TAF N/A
FIR PAZA / Amérique du Nord



MET'MAP, la Météo Aéronautique d'un coup d'oeil ! - Copyright ORBIFLY Décembre 2007 - Disclaimer

ORBIFLY MET'MAP TEAM :

Programmation & Développement : Alexandra Zaïnal
Sur une idée originale de : Baudouin d'Aumeries
Assistance à la programmation : Marc-Olivier Méhu
Soutien technique & logistique : Manuel Goepfert

Contact : metmap@orbifly.com




SOURCES & CREDITS :

   NOAA       Earth
Advisory